Location: Atlantic Beach
(40.5890°N, 73.7290°W)
Time: 00:45:43
(UTC+00:00)

Envisat - Pass Details

Date: 27 January 2021
Orbit: 764 x 766 km, 98.1° (Epoch: 03 March)

Event Time Altitude Azimuth Distance (km) Brightness Sun altitude
Rises 22:55:37 0° 203° (SSW) 3,219 6.8 -9.5°
Reaches altitude 10° 22:58:29 10° 220° (SW) 2,298 6.4 -10.0°
Maximum altitude 23:02:12 20° 267° (W) 1,701 5.9 -10.7°
Drops below altitude 10° 23:05:56 10° 315° (NW) 2,310 5.9 -11.4°
Sets 23:08:50 0° 332° (NNW) 3,241 6.4 -11.9°
